TimePST,TemperatureF,Dew PointF,Humidity,Sea Level PressureIn,VisibilityMPH,Wind Direction,Wind SpeedMPH,Gust SpeedMPH,PrecipitationIn,Events,Conditions,WindDirDegrees,DateUTC
12:10 AM,39.2,37.4,93,30.20,4.0,NW,3.5,-,0.01,,Overcast,320,2012-11-19 08:10:00
12:30 AM,39.2,37.4,93,30.19,4.0,WNW,3.5,-,0.03,,Overcast,300,2012-11-19 08:30:00
12:50 AM,39.2,37.4,93,30.19,3.0,WNW,3.5,-,0.07,,Overcast,290,2012-11-19 08:50:00
1:10 AM,39.2,37.4,93,30.19,4.0,West,3.5,-,0.01,,Overcast,270,2012-11-19 09:10:00
1:30 AM,39.2,37.4,93,30.18,3.0,West,3.5,-,0.02,,Overcast,280,2012-11-19 09:30:00
1:50 AM,39.2,37.4,93,30.18,3.0,Calm,Calm,-,0.04,,Overcast,0,2012-11-19 09:50:00
2:10 AM,39.2,37.4,93,30.18,3.0,Calm,Calm,-,0.01,,Overcast,0,2012-11-19 10:10:00
2:30 AM,39.2,37.4,93,30.18,1.8,Calm,Calm,-,0.03,,Overcast,0,2012-11-19 10:30:00
2:50 AM,39.2,37.4,93,30.18,2.0,NNW,3.5,-,0.05,,Mostly Cloudy,330,2012-11-19 10:50:00
3:10 AM,39.2,37.4,93,30.17,2.0,Calm,Calm,-,0.01,,Mostly Cloudy,0,2012-11-19 11:10:00
3:30 AM,39.2,37.4,93,30.17,2.5,WNW,3.5,-,0.02,,Mostly Cloudy,300,2012-11-19 11:30:00
4:10 AM,39.2,37.4,93,30.16,2.5,Calm,Calm,-,0.01,,Mostly Cloudy,0,2012-11-19 12:10:00
4:30 AM,39.2,37.4,93,30.17,2.5,WNW,3.5,-,0.04,,Mostly Cloudy,300,2012-11-19 12:30:00
4:50 AM,39.2,37.4,93,30.17,3.0,Calm,Calm,-,0.07,,Overcast,0,2012-11-19 12:50:00
5:30 AM,39.2,39.2,100,30.17,3.0,Calm,Calm,-,0.05,,Overcast,0,2012-11-19 13:30:00
5:50 AM,39.2,39.2,100,30.16,6.0,West,3.5,-,0.08,,Overcast,270,2012-11-19 13:50:00
6:10 AM,39.2,39.2,100,30.17,5.0,Calm,Calm,-,0.01,,Overcast,0,2012-11-19 14:10:00
6:30 AM,39.2,39.2,100,30.17,5.0,West,3.5,-,0.05,,Overcast,270,2012-11-19 14:30:00
6:50 AM,39.2,39.2,100,30.18,4.0,West,3.5,-,0.09,,Overcast,270,2012-11-19 14:50:00
7:10 AM,39.2,39.2,100,30.17,4.0,West,3.5,-,0.02,,Overcast,280,2012-11-19 15:10:00
7:30 AM,39.2,39.2,100,30.17,5.0,Calm,Calm,-,0.06,,Overcast,0,2012-11-19 15:30:00
7:50 AM,39.2,39.2,100,30.18,1.8,West,4.6,-,0.11,,Overcast,280,2012-11-19 15:50:00
8:10 AM,39.2,39.2,100,30.19,2.0,Calm,Calm,-,0.02,,Mostly Cloudy,0,2012-11-19 16:10:00
8:30 AM,41.0,39.2,93,30.20,3.0,Calm,Calm,-,0.08,,Overcast,0,2012-11-19 16:30:00
8:50 AM,41.0,39.2,93,30.20,2.5,Calm,Calm,-,0.11,,Mostly Cloudy,0,2012-11-19 16:50:00
9:10 AM,41.0,39.2,93,30.20,2.5,Calm,Calm,-,N/A,,Mostly Cloudy,0,2012-11-19 17:10:00
9:30 AM,41.0,41.0,100,30.21,3.0,Calm,Calm,-,0.04,,Overcast,0,2012-11-19 17:30:00
10:10 AM,41.0,41.0,100,30.21,2.0,WNW,3.5,-,0.01,,Overcast,290,2012-11-19 18:10:00
10:30 AM,42.8,41.0,93,30.21,1.2,WNW,3.5,-,0.02,,Mostly Cloudy,290,2012-11-19 18:30:00
10:50 AM,42.8,41.0,93,30.20,1.2,NW,3.5,-,0.04,,Mostly Cloudy,310,2012-11-19 18:50:00
11:10 AM,42.8,41.0,93,30.20,1.5,Calm,Calm,-,0.05,,Mostly Cloudy,0,2012-11-19 19:10:00
11:30 AM,44.6,41.0,87,30.19,2.5,Calm,Calm,-,0.11,,Mostly Cloudy,0,2012-11-19 19:30:00
11:50 AM,44.6,41.0,87,30.19,2.5,West,3.5,-,0.19,,Mostly Cloudy,260,2012-11-19 19:50:00
12:10 PM,44.6,42.8,93,30.18,3.0,Calm,Calm,-,0.02,,Mostly Cloudy,0,2012-11-19 20:10:00
12:30 PM,44.6,42.8,93,30.18,2.5,Calm,Calm,-,0.05,,Mostly Cloudy,0,2012-11-19 20:30:00
12:50 PM,44.6,42.8,93,30.17,2.5,Calm,Calm,-,0.07,,Overcast,0,2012-11-19 20:50:00
1:10 PM,44.6,42.8,93,30.17,2.0,Calm,Calm,-,0.02,,Overcast,0,2012-11-19 21:10:00
1:30 PM,44.6,42.8,93,30.16,2.0,Calm,Calm,-,0.06,,Overcast,0,2012-11-19 21:30:00
1:50 PM,44.6,44.6,100,30.15,2.0,Calm,Calm,-,0.07,,Overcast,0,2012-11-19 21:50:00
2:10 PM,44.6,44.6,100,30.15,2.5,North,3.5,-,0.01,,Overcast,10,2012-11-19 22:10:00
2:30 PM,44.6,44.6,100,30.14,2.0,Calm,Calm,-,0.02,,Overcast,0,2012-11-19 22:30:00
2:50 PM,44.6,44.6,100,30.15,2.5,WNW,3.5,-,0.03,,Overcast,300,2012-11-19 22:50:00
3:10 PM,44.6,44.6,100,30.13,1.8,Calm,Calm,-,N/A,,Overcast,0,2012-11-19 23:10:00
3:30 PM,46.4,44.6,93,30.14,3.0,Calm,Calm,-,0.01,,Overcast,0,2012-11-19 23:30:00
3:50 PM,46.4,44.6,93,30.14,1.2,South,5.8,-,0.04,,Overcast,180,2012-11-19 23:50:00
4:10 PM,46.4,44.6,93,30.14,1.8,South,5.8,-,0.01,,Overcast,180,2012-11-20 00:10:00
4:30 PM,46.4,44.6,93,30.14,2.5,Calm,Calm,-,0.03,,Overcast,0,2012-11-20 00:30:00
4:50 PM,44.6,44.6,100,30.14,3.0,NW,3.5,-,0.05,,Overcast,320,2012-11-20 00:50:00
5:10 PM,46.4,44.6,93,30.14,3.0,Calm,Calm,-,0.01,,Overcast,0,2012-11-20 01:10:00
5:30 PM,44.6,44.6,100,30.14,2.5,Calm,Calm,-,0.04,,Overcast,0,2012-11-20 01:30:00
5:50 PM,44.6,44.6,100,30.13,2.0,Calm,Calm,-,0.06,,Overcast,0,2012-11-20 01:50:00
6:10 PM,44.6,44.6,100,30.13,3.0,Calm,Calm,-,0.01,,Overcast,0,2012-11-20 02:10:00
6:30 PM,46.4,44.6,93,30.12,3.0,North,3.5,-,0.06,,Mostly Cloudy,350,2012-11-20 02:30:00
6:50 PM,46.4,46.4,100,30.12,2.5,Calm,Calm,-,0.11,,Overcast,0,2012-11-20 02:50:00
7:10 PM,48.2,46.4,93,30.11,3.0,SSW,5.8,-,0.02,,Overcast,200,2012-11-20 03:10:00
7:30 PM,48.2,44.6,87,30.10,10.0,SW,8.1,-,0.03,,Overcast,220,2012-11-20 03:30:00
7:50 PM,50.0,44.6,82,30.10,10.0,SSW,10.4,19.6,0.03,,Overcast,200,2012-11-20 03:50:00
8:10 PM,50.0,44.6,82,30.10,10.0,SSW,5.8,18.4,N/A,,Overcast,210,2012-11-20 04:10:00
8:30 PM,50.0,46.4,87,30.11,5.0,SSW,12.7,24.2,0.02,,Overcast,200,2012-11-20 04:30:00
8:50 PM,48.2,46.4,93,30.11,7.0,SW,6.9,-,0.03,,Overcast,220,2012-11-20 04:50:00
9:10 PM,48.2,46.4,93,30.11,5.0,SW,12.7,20.7,0.01,,Overcast,220,2012-11-20 05:10:00
9:30 PM,48.2,46.4,93,30.11,3.0,SSW,9.2,-,0.04,,Overcast,200,2012-11-20 05:30:00
9:50 PM,48.2,46.4,93,30.11,2.5,South,10.4,24.2,0.09,,Overcast,190,2012-11-20 05:50:00
10:10 PM,50.0,46.4,87,30.11,2.0,South,15.0,31.1,0.03,,Overcast,180,2012-11-20 06:10:00
10:30 PM,48.2,46.4,93,30.10,3.0,South,15.0,25.3,0.07,,Overcast,190,2012-11-20 06:30:00
10:50 PM,48.2,46.4,93,30.10,2.0,SSW,8.1,23.0,0.14,,Overcast,210,2012-11-20 06:50:00
11:10 PM,48.2,46.4,93,30.10,2.5,SSW,11.5,17.3,0.03,,Overcast,200,2012-11-20 07:10:00
11:30 PM,48.2,46.4,93,30.10,3.0,South,13.8,20.7,0.07,,Overcast,190,2012-11-20 07:30:00
11:50 PM,50.0,46.4,87,30.10,3.0,SSW,5.8,19.6,0.11,,Overcast,210,2012-11-20 07:50:00